Hourly Data Report for October 12, 2013

All times are specified in Local Standard Time (LST). Add 1 hour to adjust for Daylight Saving Time where and when it is observed.

TORONTO INTL A
ONTARIO

43°40'36.000" N
79°37'50.000" W
173.40 m
6158731
71624
YYZ

Download Data

Hourly Data (October 2013)
Hourly Data Report for October 12, 2013
Temp Definition
°C
Dew Point Temp Definition
°C
Rel Hum Definition
%
Wind Dir Definition
10's deg

Wind Spd Definition
km/h
Visibility Definition
km
Stn Press Definition
kPa
Hmdx Definition


Wind Chill Definition


Weather Definition


TIME
00:00 Legend Double Dagger 10.1 6.3 77 32 6 24.1 99.99     LegendNANA
01:00 Legend Double Dagger 11.0 6.0 71 35 4 24.1 100.01     Mainly Clear
02:00 Legend Double Dagger 8.7 5.5 80 32 7 24.1 99.99     LegendNANA
03:00 Legend Double Dagger 8.2 5.5 83 33 9 24.1 100.01     LegendNANA
04:00 Legend Double Dagger 8.7 5.1 78 34 3 24.1 100.03     Clear
05:00 Legend Double Dagger 8.5 4.7 77 4 8 24.1 100.05     LegendNANA
06:00 Legend Double Dagger 7.5 4.5 81 30 10 24.1 100.09     LegendNANA
07:00 Legend Double Dagger 9.0 4.6 74 2 5 24.1 100.14     Mainly Clear
08:00 Legend Double Dagger 11.8 7.0 72 2 6 24.1 100.18     LegendNANA
09:00 Legend Double Dagger 15.3 11.3 77 8 9 24.1 100.16     LegendNANA
10:00 Legend Double Dagger 17.3 12.7 74 11 9 24.1 100.14     Mainly Clear
11:00 Legend Double Dagger 18.7 10.9 60 11 8 24.1 100.11     LegendNANA
12:00 Legend Double Dagger 20.0 12.6 62 9 8 24.1 100.09     LegendNANA
13:00 Legend Double Dagger 20.2 12.5 61 14 16 24.1 100.03     Mainly Clear
14:00 Legend Double Dagger 20.1 12.2 60 9 15 24.1 100.01     LegendNANA
15:00 Legend Double Dagger 19.8 9.5 51 10 20 24.1 99.99     LegendNANA
16:00 Legend Double Dagger 19.4 7.9 47 9 15 24.1 100.00     Clear
17:00 Legend Double Dagger 18.1 9.0 55 9 13 24.1 99.98     LegendNANA
18:00 Legend Double Dagger 17.2 8.2 55 8 12 24.1 99.97     LegendNANA
19:00 Legend Double Dagger 16.4 7.7 56 8 11 24.1 100.01     Mainly Clear
20:00 Legend Double Dagger 15.6 8.2 61 7 8 24.1 100.03     LegendNANA
21:00 Legend Double Dagger 15.0 8.8 66 6 5 24.1 100.01     LegendNANA
22:00 Legend Double Dagger 15.6 9.8 68 4 3 24.1 100.02     Mainly Clear
23:00 Legend Double Dagger 15.0 10.3 73 14 3 24.1 100.00     LegendNANA

Notes on Data Quality.

Legend

  • E = Estimated
  • M = Missing
  • NA = Not Available
  • ‡ = Partner data that is not subject to review by the National Climate Archives
Date modified: